Time,TemperatureF,DewpointF,PressureIn,WindDirection,WindDirectionDegrees,WindSpeedMPH,WindSpeedGustMPH,Humidity,HourlyPrecipIn,Conditions,Clouds,dailyrainin,SoftwareType,DateUTC
2013-05-06 00:00:00,38.9,36.2,30.16,SSE,151,0.0,0.0,90,0.00,,,0.00,Wunderground v.1.15,2013-05-06 04:00:00,
2013-05-06 00:02:00,38.9,36.5,30.16,SSE,151,0.0,0.0,91,0.00,,,0.00,Wunderground v.1.15,2013-05-06 04:02:00,
2013-05-06 00:03:00,38.8,36.4,30.16,SSE,151,0.0,0.0,91,0.00,,,0.00,Wunderground v.1.15,2013-05-06 04:03:00,
2013-05-06 00:06:00,38.8,36.4,30.16,SSE,151,0.0,0.0,91,0.00,,,0.00,Wunderground v.1.15,2013-05-06 04:06:00,
2013-05-06 00:10:00,38.4,35.7,30.16,SSE,151,0.0,0.0,90,0.00,,,0.00,Wunderground v.1.15,2013-05-06 04:10:00,
2013-05-06 00:12:00,38.3,35.9,30.16,SSE,151,0.0,0.0,91,0.00,,,0.00,Wunderground v.1.15,2013-05-06 04:12:00,
2013-05-06 00:18:00,38.2,35.8,30.16,SSE,151,0.0,1.0,91,0.00,,,0.00,Wunderground v.1.15,2013-05-06 04:18:00,
2013-05-06 00:23:00,38.3,36.2,30.16,SSE,151,0.0,0.0,92,0.00,,,0.00,Wunderground v.1.15,2013-05-06 04:23:00,
2013-05-06 00:28:00,38.1,35.7,30.15,SSE,151,0.0,0.0,91,0.00,,,0.00,Wunderground v.1.15,2013-05-06 04:28:00,
2013-05-06 00:39:00,37.8,35.7,30.16,SSE,151,0.0,0.0,92,0.00,,,0.00,Wunderground v.1.15,2013-05-06 04:39:00,
2013-05-06 00:44:00,37.8,35.7,30.16,SSE,151,0.0,0.0,92,0.00,,,0.00,Wunderground v.1.15,2013-05-06 04:44:00,
2013-05-06 00:50:00,37.7,35.6,30.15,SSE,151,0.0,0.0,92,0.00,,,0.00,Wunderground v.1.15,2013-05-06 04:50:00,
2013-05-06 00:55:00,37.6,35.5,30.16,SSE,151,0.0,0.0,92,0.00,,,0.00,Wunderground v.1.15,2013-05-06 04:55:00,
2013-05-06 01:00:00,37.6,35.5,30.16,SSE,151,0.0,0.0,92,0.00,,,0.00,Wunderground v.1.15,2013-05-06 05:00:00,
2013-05-06 01:05:00,37.6,35.5,30.16,SSE,151,0.0,0.0,92,0.00,,,0.00,Wunderground v.1.15,2013-05-06 05:05:00,
2013-05-06 01:11:00,38.1,36.3,30.16,SSE,151,0.0,0.0,93,0.00,,,0.00,Wunderground v.1.15,2013-05-06 05:11:00,
2013-05-06 01:16:00,38.7,37.1,30.16,SSE,151,0.0,0.0,94,0.00,,,0.00,Wunderground v.1.15,2013-05-06 05:16:00,
2013-05-06 01:22:00,39.0,37.4,30.15,SSE,151,0.0,0.0,94,0.00,,,0.00,Wunderground v.1.15,2013-05-06 05:22:00,
2013-05-06 01:27:00,39.0,37.1,30.15,SSE,151,0.0,0.0,93,0.00,,,0.00,Wunderground v.1.15,2013-05-06 05:27:00,
2013-05-06 01:33:00,38.1,36.0,30.15,SSE,151,0.0,0.0,92,0.00,,,0.00,Wunderground v.1.15,2013-05-06 05:33:00,
2013-05-06 01:39:00,37.6,35.5,30.15,SSE,151,0.0,0.0,92,0.00,,,0.00,Wunderground v.1.15,2013-05-06 05:39:00,
2013-05-06 01:44:00,37.4,35.3,30.15,SSE,151,0.0,0.0,92,0.00,,,0.00,Wunderground v.1.15,2013-05-06 05:44:00,
2013-05-06 01:50:00,36.9,34.8,30.15,SSE,151,0.0,0.0,92,0.00,,,0.00,Wunderground v.1.15,2013-05-06 05:50:00,
2013-05-06 01:56:00,36.9,34.8,30.15,SSE,151,0.0,0.0,92,0.00,,,0.00,Wunderground v.1.15,2013-05-06 05:56:00,
2013-05-06 02:01:00,37.1,35.3,30.15,SSE,151,0.0,0.0,93,0.00,,,0.00,Wunderground v.1.15,2013-05-06 06:01:00,
2013-05-06 02:07:00,37.2,35.4,30.15,SSE,151,0.0,0.0,93,0.00,,,0.00,Wunderground v.1.15,2013-05-06 06:07:00,
2013-05-06 02:12:00,37.3,35.5,30.14,SSE,151,0.0,0.0,93,0.00,,,0.00,Wunderground v.1.15,2013-05-06 06:12:00,
2013-05-06 02:18:00,37.7,36.1,30.14,SSE,151,0.0,0.0,94,0.00,,,0.00,Wunderground v.1.15,2013-05-06 06:18:00,
2013-05-06 02:23:00,38.2,36.6,30.14,SSE,151,0.0,0.0,94,0.00,,,0.00,Wunderground v.1.15,2013-05-06 06:23:00,
2013-05-06 02:28:00,38.2,36.6,30.14,SSE,151,0.0,0.0,94,0.00,,,0.00,Wunderground v.1.15,2013-05-06 06:28:00,
2013-05-06 02:35:00,38.4,36.8,30.14,SSE,151,0.0,0.0,94,0.00,,,0.00,Wunderground v.1.15,2013-05-06 06:35:00,
2013-05-06 02:41:00,38.8,37.2,30.14,SSE,151,0.0,0.0,94,0.00,,,0.00,Wunderground v.1.15,2013-05-06 06:41:00,
2013-05-06 02:46:00,39.2,37.6,30.14,SSE,151,0.0,0.0,94,0.00,,,0.00,Wunderground v.1.15,2013-05-06 06:46:00,
2013-05-06 02:52:00,39.4,37.8,30.14,SSE,151,0.0,0.0,94,0.00,,,0.00,Wunderground v.1.15,2013-05-06 06:52:00,
2013-05-06 02:57:00,39.1,37.5,30.14,SSE,151,0.0,0.0,94,0.00,,,0.00,Wunderground v.1.15,2013-05-06 06:57:00,
2013-05-06 03:03:00,38.9,37.3,30.14,SSE,151,0.0,0.0,94,0.00,,,0.00,Wunderground v.1.15,2013-05-06 07:03:00,
2013-05-06 03:09:00,39.0,37.4,30.14,SSE,151,0.0,0.0,94,0.00,,,0.00,Wunderground v.1.15,2013-05-06 07:09:00,
2013-05-06 03:14:00,39.6,38.3,30.13,SSE,151,0.0,0.0,95,0.00,,,0.00,Wunderground v.1.15,2013-05-06 07:14:00,
2013-05-06 03:20:00,39.7,38.1,30.13,SSE,151,0.0,0.0,94,0.00,,,0.00,Wunderground v.1.15,2013-05-06 07:20:00,
2013-05-06 03:26:00,40.5,39.2,30.13,SSE,151,0.0,0.0,95,0.00,,,0.00,Wunderground v.1.15,2013-05-06 07:26:00,
2013-05-06 03:31:00,41.1,39.8,30.13,SSE,151,0.0,0.0,95,0.00,,,0.00,Wunderground v.1.15,2013-05-06 07:31:00,
2013-05-06 03:37:00,41.5,40.2,30.14,SSE,151,0.0,0.0,95,0.00,,,0.00,Wunderground v.1.15,2013-05-06 07:37:00,
2013-05-06 03:42:00,42.8,41.5,30.13,SSE,151,0.0,0.0,95,0.00,,,0.00,Wunderground v.1.15,2013-05-06 07:42:00,
2013-05-06 03:48:00,43.4,42.1,30.13,SSE,151,0.0,0.0,95,0.00,,,0.00,Wunderground v.1.15,2013-05-06 07:48:00,
2013-05-06 03:53:00,43.8,42.5,30.13,SSE,151,0.0,0.0,95,0.00,,,0.00,Wunderground v.1.15,2013-05-06 07:53:00,
2013-05-06 03:59:00,44.2,42.9,30.14,SSE,151,0.0,0.0,95,0.00,,,0.00,Wunderground v.1.15,2013-05-06 07:59:00,
2013-05-06 04:05:00,44.6,43.3,30.14,SSE,151,0.0,0.0,95,0.00,,,0.00,Wunderground v.1.15,2013-05-06 08:05:00,
2013-05-06 04:11:00,44.9,43.6,30.14,SSE,151,0.0,0.0,95,0.00,,,0.00,Wunderground v.1.15,2013-05-06 08:11:00,
2013-05-06 04:16:00,45.2,43.6,30.13,SSE,151,0.0,1.0,94,0.00,,,0.00,Wunderground v.1.15,2013-05-06 08:16:00,
2013-05-06 04:22:00,45.4,43.8,30.13,SSE,151,0.0,0.0,94,0.00,,,0.00,Wunderground v.1.15,2013-05-06 08:22:00,
2013-05-06 04:28:00,45.6,43.7,30.13,SSE,151,0.0,0.0,93,0.00,,,0.00,Wunderground v.1.15,2013-05-06 08:28:00,
2013-05-06 04:35:00,45.8,43.6,30.13,SSE,151,0.0,0.0,92,0.00,,,0.00,Wunderground v.1.15,2013-05-06 08:35:00,
2013-05-06 04:41:00,46.0,43.8,30.13,SSE,151,0.0,0.0,92,0.00,,,0.00,Wunderground v.1.15,2013-05-06 08:41:00,
2013-05-06 04:47:00,46.2,43.7,30.13,SSE,151,0.0,0.0,91,0.00,,,0.00,Wunderground v.1.15,2013-05-06 08:47:00,
2013-05-06 04:52:00,46.3,43.8,30.13,SSE,151,0.0,0.0,91,0.00,,,0.00,Wunderground v.1.15,2013-05-06 08:52:00,
2013-05-06 04:57:00,46.3,43.8,30.13,SSE,151,0.0,0.0,91,0.00,,,0.00,Wunderground v.1.15,2013-05-06 08:57:00,
2013-05-06 05:02:00,46.3,43.5,30.13,SSE,151,0.0,0.0,90,0.00,,,0.00,Wunderground v.1.15,2013-05-06 09:02:00,
2013-05-06 05:07:00,46.2,43.4,30.12,SSE,151,0.0,1.0,90,0.00,,,0.00,Wunderground v.1.15,2013-05-06 09:07:00,
2013-05-06 05:12:00,46.1,43.3,30.12,SSE,151,0.0,0.0,90,0.00,,,0.00,Wunderground v.1.15,2013-05-06 09:12:00,
2013-05-06 05:18:00,46.0,43.2,30.12,SSE,151,0.0,0.0,90,0.00,,,0.00,Wunderground v.1.15,2013-05-06 09:18:00,
2013-05-06 05:23:00,45.9,43.1,30.12,SSE,151,0.0,0.0,90,0.00,,,0.00,Wunderground v.1.15,2013-05-06 09:23:00,
2013-05-06 05:29:00,45.9,43.4,30.13,SSE,151,0.0,0.0,91,0.00,,,0.00,Wunderground v.1.15,2013-05-06 09:29:00,
2013-05-06 05:35:00,46.1,43.6,30.12,SSE,151,0.0,0.0,91,0.00,,,0.00,Wunderground v.1.15,2013-05-06 09:35:00,
2013-05-06 05:41:00,46.3,43.5,30.13,SSE,151,0.0,0.0,90,0.00,,,0.00,Wunderground v.1.15,2013-05-06 09:41:00,
2013-05-06 05:47:00,46.5,44.0,30.13,SSE,151,0.0,0.0,91,0.00,,,0.00,Wunderground v.1.15,2013-05-06 09:47:00,
2013-05-06 05:52:00,46.7,44.2,30.13,SSE,151,0.0,0.0,91,0.00,,,0.00,Wunderground v.1.15,2013-05-06 09:52:00,
2013-05-06 05:57:00,46.7,43.9,30.13,SSE,151,0.0,0.0,90,0.00,,,0.00,Wunderground v.1.15,2013-05-06 09:57:00,
2013-05-06 06:03:00,46.7,43.9,30.14,SSE,151,0.0,0.0,90,0.00,,,0.00,Wunderground v.1.15,2013-05-06 10:03:00,
2013-05-06 06:08:00,46.8,44.0,30.14,SSE,151,0.0,0.0,90,0.00,,,0.00,Wunderground v.1.15,2013-05-06 10:08:00,
2013-05-06 06:14:00,46.8,43.7,30.14,SSE,151,0.0,0.0,89,0.00,,,0.00,Wunderground v.1.15,2013-05-06 10:14:00,
2013-05-06 06:20:00,46.9,43.8,30.14,SSE,151,0.0,1.0,89,0.00,,,0.00,Wunderground v.1.15,2013-05-06 10:20:00,
2013-05-06 06:25:00,46.9,43.8,30.14,SSE,151,0.0,0.0,89,0.00,,,0.00,Wunderground v.1.15,2013-05-06 10:25:00,
2013-05-06 06:31:00,47.0,43.9,30.14,SSE,151,0.0,0.0,89,0.00,,,0.00,Wunderground v.1.15,2013-05-06 10:31:00,
2013-05-06 06:37:00,47.0,43.9,30.14,SSE,151,0.0,0.0,89,0.00,,,0.00,Wunderground v.1.15,2013-05-06 10:37:00,
2013-05-06 06:42:00,47.1,44.0,30.13,SSE,151,0.0,0.0,89,0.00,,,0.00,Wunderground v.1.15,2013-05-06 10:42:00,
2013-05-06 06:47:00,47.2,44.1,30.14,SSE,151,0.0,0.0,89,0.00,,,0.00,Wunderground v.1.15,2013-05-06 10:47:00,
2013-05-06 06:52:00,47.2,43.8,30.14,SSE,151,0.0,0.0,88,0.00,,,0.00,Wunderground v.1.15,2013-05-06 10:52:00,
2013-05-06 06:58:00,47.3,43.9,30.14,SSE,151,0.0,3.0,88,0.00,,,0.00,Wunderground v.1.15,2013-05-06 10:58:00,
2013-05-06 07:03:00,47.4,44.0,30.14,SSE,151,0.0,2.0,88,0.00,,,0.00,Wunderground v.1.15,2013-05-06 11:03:00,
2013-05-06 07:09:00,47.5,43.8,30.14,SSE,151,0.0,2.0,87,0.00,,,0.00,Wunderground v.1.15,2013-05-06 11:09:00,
2013-05-06 07:14:00,47.6,43.9,30.14,SSE,151,0.0,3.0,87,0.00,,,0.00,Wunderground v.1.15,2013-05-06 11:14:00,
2013-05-06 07:20:00,47.7,44.0,30.14,SSE,152,0.0,3.0,87,0.00,,,0.00,Wunderground v.1.15,2013-05-06 11:20:00,
2013-05-06 07:26:00,47.8,43.8,30.14,SSE,152,0.0,1.0,86,0.00,,,0.00,Wunderground v.1.15,2013-05-06 11:26:00,
2013-05-06 07:31:00,47.9,43.9,30.14,SSE,154,0.0,1.0,86,0.00,,,0.00,Wunderground v.1.15,2013-05-06 11:31:00,
2013-05-06 07:37:00,48.0,44.0,30.14,SSE,153,0.0,3.0,86,0.00,,,0.00,Wunderground v.1.15,2013-05-06 11:37:00,
2013-05-06 07:43:00,47.9,43.9,30.15,SSE,154,0.0,2.0,86,0.00,,,0.00,Wunderground v.1.15,2013-05-06 11:43:00,
2013-05-06 07:50:00,48.0,43.7,30.15,SSE,154,0.0,2.0,85,0.00,,,0.00,Wunderground v.1.15,2013-05-06 11:50:00,
2013-05-06 07:55:00,48.0,43.7,30.14,SSE,154,0.0,1.0,85,0.00,,,0.00,Wunderground v.1.15,2013-05-06 11:55:00,
2013-05-06 08:02:00,48.2,43.9,30.14,SSE,154,0.0,0.0,85,0.00,,,0.00,Wunderground v.1.15,2013-05-06 12:02:00,
2013-05-06 08:07:00,48.3,44.0,30.14,SSE,154,0.0,0.0,85,0.00,,,0.00,Wunderground v.1.15,2013-05-06 12:07:00,
2013-05-06 08:12:00,48.4,43.8,30.14,SSE,154,0.0,0.0,84,0.00,,,0.00,Wunderground v.1.15,2013-05-06 12:12:00,
2013-05-06 08:17:00,48.5,43.9,30.14,SSE,154,0.0,0.0,84,0.00,,,0.00,Wunderground v.1.15,2013-05-06 12:17:00,
2013-05-06 08:22:00,48.7,44.1,30.14,SSE,154,0.0,0.0,84,0.00,,,0.00,Wunderground v.1.15,2013-05-06 12:22:00,
2013-05-06 08:28:00,48.7,44.1,30.14,SSE,155,0.0,1.0,84,0.00,,,0.00,Wunderground v.1.15,2013-05-06 12:28:00,
2013-05-06 08:35:00,48.8,43.9,30.14,NNE,16,0.0,0.0,83,0.00,,,0.00,Wunderground v.1.15,2013-05-06 12:35:00,
2013-05-06 08:40:00,48.9,44.3,30.14,NNE,16,0.0,0.0,84,0.00,,,0.00,Wunderground v.1.15,2013-05-06 12:40:00,
2013-05-06 08:45:00,49.1,44.5,30.14,NNE,16,0.0,1.0,84,0.00,,,0.00,Wunderground v.1.15,2013-05-06 12:45:00,
2013-05-06 08:51:00,49.2,44.3,30.14,NNE,16,0.0,1.0,83,0.00,,,0.00,Wunderground v.1.15,2013-05-06 12:51:00,
2013-05-06 08:56:00,49.3,44.7,30.14,NNE,16,0.0,1.0,84,0.00,,,0.00,Wunderground v.1.15,2013-05-06 12:56:00,
2013-05-06 09:02:00,49.4,45.1,30.14,NNE,16,0.0,2.0,85,0.00,,,0.00,Wunderground v.1.15,2013-05-06 13:02:00,
2013-05-06 09:07:00,49.2,45.2,30.14,North,350,0.0,2.0,86,0.00,,,0.00,Wunderground v.1.15,2013-05-06 13:07:00,
2013-05-06 09:12:00,49.1,45.4,30.14,North,350,0.0,0.0,87,0.00,,,0.00,Wunderground v.1.15,2013-05-06 13:12:00,
2013-05-06 09:17:00,48.9,45.5,30.14,North,350,0.0,0.0,88,0.00,,,0.00,Wunderground v.1.15,2013-05-06 13:17:00,
2013-05-06 09:22:00,49.0,45.6,30.14,NNW,345,0.0,3.0,88,0.00,,,0.00,Wunderground v.1.15,2013-05-06 13:22:00,
2013-05-06 09:28:00,49.0,45.3,30.14,NNW,344,0.0,3.0,87,0.00,,,0.00,Wunderground v.1.15,2013-05-06 13:28:00,
2013-05-06 09:33:00,49.1,45.4,30.14,NNW,344,0.0,1.0,87,0.00,,,0.00,Wunderground v.1.15,2013-05-06 13:33:00,
2013-05-06 09:40:00,49.2,45.5,30.14,NNW,344,0.0,1.0,87,0.00,,,0.00,Wunderground v.1.15,2013-05-06 13:40:00,
2013-05-06 09:47:00,49.4,45.7,30.14,NNW,344,0.0,1.0,87,0.00,,,0.00,Wunderground v.1.15,2013-05-06 13:47:00,
2013-05-06 09:52:00,49.6,45.9,30.14,NNW,344,0.0,0.0,87,0.00,,,0.00,Wunderground v.1.15,2013-05-06 13:52:00,
2013-05-06 09:57:00,49.7,46.0,30.15,NNW,344,0.0,1.0,87,0.00,,,0.00,Wunderground v.1.15,2013-05-06 13:57:00,
2013-05-06 10:02:00,49.7,46.0,30.15,NNW,344,1.0,1.0,87,0.00,,,0.00,Wunderground v.1.15,2013-05-06 14:02:00,
2013-05-06 10:08:00,49.7,46.0,30.15,NNW,344,1.0,1.0,87,0.00,,,0.00,Wunderground v.1.15,2013-05-06 14:08:00,
2013-05-06 10:13:00,49.7,46.3,30.14,NNW,344,1.0,3.0,88,0.00,,,0.00,Wunderground v.1.15,2013-05-06 14:13:00,
2013-05-06 10:20:00,50.1,46.7,30.14,NNW,333,1.0,3.0,88,0.00,,,0.00,Wunderground v.1.15,2013-05-06 14:20:00,
2013-05-06 10:26:00,50.6,47.2,30.14,NW,313,1.0,1.0,88,0.00,,,0.00,Wunderground v.1.15,2013-05-06 14:26:00,
2013-05-06 10:31:00,51.1,47.4,30.14,NW,321,1.0,2.0,87,0.00,,,0.00,Wunderground v.1.15,2013-05-06 14:31:00,
2013-05-06 10:37:00,51.4,47.7,30.14,WNW,296,1.0,1.0,87,0.00,,,0.00,Wunderground v.1.15,2013-05-06 14:37:00,
2013-05-06 10:42:00,51.6,47.9,30.14,NW,309,1.0,1.0,87,0.00,,,0.00,Wunderground v.1.15,2013-05-06 14:42:00,
2013-05-06 10:47:00,51.7,47.6,30.14,NW,310,1.0,3.0,86,0.00,,,0.00,Wunderground v.1.15,2013-05-06 14:47:00,
2013-05-06 10:52:00,51.8,48.1,30.14,NW,310,1.0,1.0,87,0.00,,,0.00,Wunderground v.1.15,2013-05-06 14:52:00,
2013-05-06 10:57:00,51.9,48.2,30.14,NW,314,1.0,2.0,87,0.00,,,0.00,Wunderground v.1.15,2013-05-06 14:57:00,
2013-05-06 11:03:00,52.0,48.3,30.14,NW,314,1.0,1.0,87,0.00,,,0.00,Wunderground v.1.15,2013-05-06 15:03:00,
2013-05-06 11:08:00,52.2,48.8,30.14,NW,314,0.0,1.0,88,0.00,,,0.00,Wunderground v.1.15,2013-05-06 15:08:00,
2013-05-06 11:13:00,52.2,48.8,30.14,NW,319,1.0,1.0,88,0.00,,,0.00,Wunderground v.1.15,2013-05-06 15:13:00,
2013-05-06 11:18:00,52.3,49.2,30.14,NW,319,1.0,1.0,89,0.00,,,0.00,Wunderground v.1.15,2013-05-06 15:18:00,
2013-05-06 11:24:00,52.2,49.1,30.13,NNW,328,1.0,3.0,89,0.00,,,0.00,Wunderground v.1.15,2013-05-06 15:24:00,
2013-05-06 11:30:00,52.4,49.8,30.14,NNW,328,1.0,3.0,91,0.00,,,0.00,Wunderground v.1.15,2013-05-06 15:30:00,
2013-05-06 11:35:00,52.2,49.4,30.13,NNW,334,1.0,1.0,90,0.00,,,0.00,Wunderground v.1.15,2013-05-06 15:35:00,
2013-05-06 11:41:00,52.2,49.4,30.13,NNW,334,1.0,4.0,90,0.00,,,0.00,Wunderground v.1.15,2013-05-06 15:41:00,
2013-05-06 11:46:00,52.7,49.8,30.13,NNW,330,0.0,4.0,90,0.00,,,0.00,Wunderground v.1.15,2013-05-06 15:46:00,
2013-05-06 11:52:00,53.0,50.1,30.13,NNW,343,1.0,3.0,90,0.00,,,0.00,Wunderground v.1.15,2013-05-06 15:52:00,
2013-05-06 11:57:00,53.2,50.0,30.13,NNW,336,1.0,3.0,89,0.00,,,0.00,Wunderground v.1.15,2013-05-06 15:57:00,
2013-05-06 12:02:00,53.3,49.8,30.13,NW,325,1.0,1.0,88,0.00,,,0.00,Wunderground v.1.15,2013-05-06 16:02:00,
2013-05-06 12:08:00,53.5,50.3,30.13,NNW,327,1.0,2.0,89,0.00,,,0.00,Wunderground v.1.15,2013-05-06 16:08:00,
2013-05-06 12:13:00,53.9,51.0,30.13,South,178,1.0,1.0,90,0.00,,,0.00,Wunderground v.1.15,2013-05-06 16:13:00,
2013-05-06 12:20:00,54.2,51.3,30.13,South,178,0.0,1.0,90,0.00,,,0.00,Wunderground v.1.15,2013-05-06 16:20:00,
2013-05-06 12:26:00,54.3,51.4,30.13,South,178,0.0,2.0,90,0.00,,,0.00,Wunderground v.1.15,2013-05-06 16:26:00,
2013-05-06 12:31:00,54.5,51.3,30.12,South,173,0.0,2.0,89,0.00,,,0.00,Wunderground v.1.15,2013-05-06 16:31:00,
2013-05-06 12:37:00,54.9,51.7,30.12,South,173,0.0,3.0,89,0.00,,,0.00,Wunderground v.1.15,2013-05-06 16:37:00,
2013-05-06 12:42:00,55.1,51.3,30.12,SSE,168,1.0,1.0,87,0.00,,,0.00,Wunderground v.1.15,2013-05-06 16:42:00,
2013-05-06 12:48:00,55.4,51.6,30.11,NW,325,1.0,5.0,87,0.00,,,0.00,Wunderground v.1.15,2013-05-06 16:48:00,
2013-05-06 12:53:00,55.7,51.6,30.11,NNW,333,1.0,1.0,86,0.00,,,0.00,Wunderground v.1.15,2013-05-06 16:53:00,
2013-05-06 12:59:00,55.9,51.8,30.11,South,180,1.0,3.0,86,0.00,,,0.00,Wunderground v.1.15,2013-05-06 16:59:00,
2013-05-06 13:05:00,56.0,51.6,30.11,NNW,329,1.0,1.0,85,0.00,,,0.00,Wunderground v.1.15,2013-05-06 17:05:00,
2013-05-06 13:12:00,55.8,51.7,30.11,NNW,327,1.0,1.0,86,0.00,,,0.00,Wunderground v.1.15,2013-05-06 17:12:00,
2013-05-06 13:18:00,55.5,51.4,30.11,SW,223,1.0,2.0,86,0.00,,,0.00,Wunderground v.1.15,2013-05-06 17:18:00,
2013-05-06 13:23:00,55.6,51.8,30.11,NW,321,1.0,1.0,87,0.00,,,0.00,Wunderground v.1.15,2013-05-06 17:23:00,
2013-05-06 13:28:00,55.6,51.8,30.10,NW,321,1.0,1.0,87,0.00,,,0.00,Wunderground v.1.15,2013-05-06 17:28:00,
2013-05-06 13:34:00,55.8,52.0,30.10,NNW,333,1.0,1.0,87,0.00,,,0.00,Wunderground v.1.15,2013-05-06 17:34:00,
2013-05-06 13:39:00,55.8,52.0,30.10,WSW,244,1.0,2.0,87,0.00,,,0.00,Wunderground v.1.15,2013-05-06 17:39:00,
2013-05-06 13:44:00,55.7,52.2,30.10,WSW,249,1.0,1.0,88,0.00,,,0.00,Wunderground v.1.15,2013-05-06 17:44:00,
2013-05-06 13:50:00,55.6,52.4,30.10,West,279,1.0,1.0,89,0.00,,,0.00,Wunderground v.1.15,2013-05-06 17:50:00,
2013-05-06 13:56:00,55.5,52.3,30.09,WNW,302,1.0,2.0,89,0.00,,,0.00,Wunderground v.1.15,2013-05-06 17:56:00,
2013-05-06 14:02:00,55.7,52.8,30.09,NNW,339,1.0,1.0,90,0.00,,,0.00,Wunderground v.1.15,2013-05-06 18:02:00,
2013-05-06 14:07:00,55.7,52.5,30.09,NNW,346,1.0,1.0,89,0.00,,,0.00,Wunderground v.1.15,2013-05-06 18:07:00,
2013-05-06 14:13:00,55.6,52.1,30.09,West,280,1.0,2.0,88,0.00,,,0.00,Wunderground v.1.15,2013-05-06 18:13:00,
2013-05-06 14:18:00,55.8,52.6,30.09,West,280,1.0,2.0,89,0.00,,,0.00,Wunderground v.1.15,2013-05-06 18:18:00,
2013-05-06 14:23:00,55.8,52.6,30.09,West,281,0.0,0.0,89,0.00,,,0.00,Wunderground v.1.15,2013-05-06 18:23:00,
2013-05-06 14:28:00,55.7,52.5,30.09,West,280,0.0,2.0,89,0.00,,,0.00,Wunderground v.1.15,2013-05-06 18:28:00,
2013-05-06 14:35:00,55.7,52.5,30.09,West,280,0.0,1.0,89,0.00,,,0.00,Wunderground v.1.15,2013-05-06 18:35:00,
2013-05-06 14:41:00,55.9,52.7,30.09,West,280,0.0,2.0,89,0.00,,,0.00,Wunderground v.1.15,2013-05-06 18:41:00,
2013-05-06 14:47:00,55.8,52.9,30.08,West,280,0.0,0.0,90,0.00,,,0.00,Wunderground v.1.15,2013-05-06 18:47:00,
2013-05-06 14:52:00,55.9,53.0,30.08,West,280,0.0,0.0,90,0.00,,,0.00,Wunderground v.1.15,2013-05-06 18:52:00,
2013-05-06 14:57:00,56.0,53.4,30.08,West,280,0.0,1.0,91,0.00,,,0.01,Wunderground v.1.15,2013-05-06 18:57:00,
2013-05-06 15:03:00,56.0,53.1,30.08,West,279,1.0,1.0,90,0.00,,,0.01,Wunderground v.1.15,2013-05-06 19:03:00,
2013-05-06 15:09:00,56.1,53.5,30.08,West,279,0.0,1.0,91,0.00,,,0.01,Wunderground v.1.15,2013-05-06 19:09:00,
2013-05-06 15:14:00,56.2,53.6,30.07,West,280,0.0,0.0,91,0.00,,,0.01,Wunderground v.1.15,2013-05-06 19:14:00,
2013-05-06 15:20:00,56.2,53.6,30.07,SW,217,0.0,2.0,91,0.00,,,0.01,Wunderground v.1.15,2013-05-06 19:20:00,
2013-05-06 15:27:00,56.3,53.7,30.07,SW,217,0.0,1.0,91,0.00,,,0.01,Wunderground v.1.15,2013-05-06 19:27:00,
2013-05-06 15:33:00,56.5,53.9,30.07,SW,217,0.0,0.0,91,0.00,,,0.01,Wunderground v.1.15,2013-05-06 19:33:00,
2013-05-06 15:39:00,56.6,54.0,30.07,SW,217,0.0,0.0,91,0.00,,,0.01,Wunderground v.1.15,2013-05-06 19:39:00,
2013-05-06 15:44:00,56.6,54.0,30.07,SW,217,0.0,1.0,91,0.00,,,0.01,Wunderground v.1.15,2013-05-06 19:44:00,
2013-05-06 15:50:00,56.6,54.0,30.06,SW,217,0.0,1.0,91,0.00,,,0.02,Wunderground v.1.15,2013-05-06 19:50:00,
2013-05-06 15:56:00,56.5,53.9,30.06,SW,217,0.0,0.0,91,0.00,,,0.02,Wunderground v.1.15,2013-05-06 19:56:00,
2013-05-06 16:01:00,56.6,54.0,30.06,SW,217,0.0,0.0,91,0.00,,,0.02,Wunderground v.1.15,2013-05-06 20:01:00,
2013-05-06 16:07:00,56.6,54.0,30.06,SW,217,0.0,0.0,91,0.00,,,0.02,Wunderground v.1.15,2013-05-06 20:07:00,
2013-05-06 16:13:00,56.6,54.0,30.06,SW,217,0.0,0.0,91,0.00,,,0.02,Wunderground v.1.15,2013-05-06 20:13:00,
2013-05-06 16:18:00,56.6,54.0,30.06,SW,217,0.0,2.0,91,0.00,,,0.02,Wunderground v.1.15,2013-05-06 20:18:00,
2013-05-06 16:24:00,56.7,54.1,30.05,SW,217,0.0,0.0,91,0.00,,,0.02,Wunderground v.1.15,2013-05-06 20:24:00,
2013-05-06 16:29:00,56.7,54.1,30.05,SW,217,0.0,0.0,91,0.00,,,0.02,Wunderground v.1.15,2013-05-06 20:29:00,
2013-05-06 16:35:00,56.7,54.4,30.06,SW,217,0.0,0.0,92,0.00,,,0.02,Wunderground v.1.15,2013-05-06 20:35:00,
2013-05-06 16:41:00,56.9,54.6,30.05,SW,217,0.0,0.0,92,0.00,,,0.02,Wunderground v.1.15,2013-05-06 20:41:00,
2013-05-06 16:47:00,56.9,54.6,30.05,SW,217,0.0,1.0,92,0.00,,,0.02,Wunderground v.1.15,2013-05-06 20:47:00,
2013-05-06 16:52:00,56.9,54.6,30.05,SW,217,0.0,1.0,92,0.00,,,0.02,Wunderground v.1.15,2013-05-06 20:52:00,
2013-05-06 16:57:00,57.0,54.7,30.05,SW,217,0.0,1.0,92,0.00,,,0.02,Wunderground v.1.15,2013-05-06 20:57:00,
2013-05-06 17:03:00,57.0,54.7,30.05,SW,217,0.0,0.0,92,0.00,,,0.02,Wunderground v.1.15,2013-05-06 21:03:00,
2013-05-06 17:08:00,57.1,54.8,30.05,SW,217,0.0,0.0,92,0.00,,,0.02,Wunderground v.1.15,2013-05-06 21:08:00,
2013-05-06 17:14:00,57.1,54.8,30.05,SW,217,0.0,1.0,92,0.00,,,0.02,Wunderground v.1.15,2013-05-06 21:14:00,
2013-05-06 17:20:00,57.1,54.8,30.05,SW,217,0.0,1.0,92,0.00,,,0.02,Wunderground v.1.15,2013-05-06 21:20:00,
2013-05-06 17:25:00,57.1,54.8,30.05,SW,218,0.0,0.0,92,0.00,,,0.02,Wunderground v.1.15,2013-05-06 21:25:00,
2013-05-06 17:31:00,57.2,54.9,30.05,SW,219,0.0,0.0,92,0.00,,,0.02,Wunderground v.1.15,2013-05-06 21:31:00,
2013-05-06 17:37:00,57.2,54.9,30.05,SW,220,0.0,2.0,92,0.00,,,0.02,Wunderground v.1.15,2013-05-06 21:37:00,
2013-05-06 17:42:00,57.3,55.0,30.05,SW,220,0.0,0.0,92,0.00,,,0.02,Wunderground v.1.15,2013-05-06 21:42:00,
2013-05-06 17:48:00,57.4,55.1,30.05,SW,220,0.0,0.0,92,0.00,,,0.02,Wunderground v.1.15,2013-05-06 21:48:00,
2013-05-06 17:53:00,57.5,55.2,30.04,SW,220,0.0,0.0,92,0.00,,,0.02,Wunderground v.1.15,2013-05-06 21:53:00,
2013-05-06 17:58:00,57.5,55.2,30.04,SW,220,0.0,0.0,92,0.00,,,0.02,Wunderground v.1.15,2013-05-06 21:58:00,
2013-05-06 18:05:00,57.6,55.3,30.04,SW,220,0.0,0.0,92,0.00,,,0.02,Wunderground v.1.15,2013-05-06 22:05:00,
2013-05-06 18:11:00,57.7,55.4,30.04,SW,220,0.0,0.0,92,0.00,,,0.02,Wunderground v.1.15,2013-05-06 22:11:00,
2013-05-06 18:17:00,57.7,55.4,30.04,SW,220,0.0,0.0,92,0.00,,,0.02,Wunderground v.1.15,2013-05-06 22:17:00,
2013-05-06 18:22:00,57.7,55.4,30.03,SW,220,0.0,0.0,92,0.00,,,0.02,Wunderground v.1.15,2013-05-06 22:22:00,
2013-05-06 18:28:00,57.7,55.1,30.03,SW,220,0.0,1.0,91,0.00,,,0.02,Wunderground v.1.15,2013-05-06 22:28:00,
2013-05-06 18:33:00,57.7,55.1,30.03,SW,220,0.0,2.0,91,0.00,,,0.02,Wunderground v.1.15,2013-05-06 22:33:00,
2013-05-06 18:39:00,57.8,55.2,30.03,SW,220,0.0,2.0,91,0.00,,,0.02,Wunderground v.1.15,2013-05-06 22:39:00,
2013-05-06 18:44:00,57.8,55.2,30.03,SSW,209,0.0,5.0,91,0.00,,,0.02,Wunderground v.1.15,2013-05-06 22:44:00,
2013-05-06 18:50:00,57.8,55.2,30.03,South,183,0.0,5.0,91,0.00,,,0.02,Wunderground v.1.15,2013-05-06 22:50:00,
2013-05-06 18:56:00,57.9,55.3,30.03,South,183,0.0,0.0,91,0.00,,,0.02,Wunderground v.1.15,2013-05-06 22:56:00,
2013-05-06 19:02:00,57.8,55.2,30.03,South,183,0.0,0.0,91,0.00,,,0.02,Wunderground v.1.15,2013-05-06 23:02:00,
2013-05-06 19:07:00,57.8,55.2,30.03,South,180,0.0,2.0,91,0.00,,,0.03,Wunderground v.1.15,2013-05-06 23:07:00,
2013-05-06 19:13:00,57.8,55.2,30.03,South,180,0.0,0.0,91,0.00,,,0.03,Wunderground v.1.15,2013-05-06 23:13:00,
2013-05-06 19:18:00,57.9,55.6,30.03,South,180,0.0,0.0,92,0.00,,,0.03,Wunderground v.1.15,2013-05-06 23:18:00,
2013-05-06 19:23:00,57.8,55.5,30.03,South,180,0.0,2.0,92,0.00,,,0.03,Wunderground v.1.15,2013-05-06 23:23:00,
2013-05-06 19:28:00,57.8,55.5,30.03,NNW,336,0.0,5.0,92,0.00,,,0.03,Wunderground v.1.15,2013-05-06 23:28:00,
2013-05-06 19:35:00,57.8,55.5,30.03,North,360,0.0,1.0,92,0.00,,,0.03,Wunderground v.1.15,2013-05-06 23:35:00,
2013-05-06 19:41:00,57.8,55.5,30.04,North,360,0.0,1.0,92,0.00,,,0.03,Wunderground v.1.15,2013-05-06 23:41:00,
2013-05-06 19:47:00,57.8,55.5,30.04,NNW,336,0.0,0.0,92,0.00,,,0.04,Wunderground v.1.15,2013-05-06 23:47:00,
2013-05-06 19:52:00,57.7,55.7,30.04,NNW,336,0.0,0.0,93,0.00,,,0.04,Wunderground v.1.15,2013-05-06 23:52:00,
2013-05-06 19:58:00,57.6,55.6,30.04,NNW,336,0.0,0.0,93,0.00,,,0.04,Wunderground v.1.15,2013-05-06 23:58:00,
2013-05-06 20:03:00,57.6,55.6,30.05,NNW,336,0.0,0.0,93,0.00,,,0.04,Wunderground v.1.15,2013-05-07 00:03:00,
2013-05-06 20:09:00,57.5,55.5,30.05,NNW,336,0.0,0.0,93,0.00,,,0.04,Wunderground v.1.15,2013-05-07 00:09:00,
2013-05-06 20:14:00,57.5,55.5,30.05,NNW,336,0.0,0.0,93,0.00,,,0.05,Wunderground v.1.15,2013-05-07 00:14:00,
2013-05-06 20:20:00,57.4,55.7,30.05,NNW,336,0.0,1.0,94,0.08,,,0.06,Wunderground v.1.15,2013-05-07 00:20:00,
2013-05-06 20:25:00,57.3,55.6,30.05,NNW,336,0.0,0.0,94,0.08,,,0.06,Wunderground v.1.15,2013-05-07 00:25:00,
2013-05-06 20:31:00,57.3,55.6,30.05,NNW,336,0.0,0.0,94,0.05,,,0.06,Wunderground v.1.15,2013-05-07 00:31:00,
2013-05-06 20:37:00,57.3,55.6,30.05,NNW,336,0.0,0.0,94,0.00,,,0.06,Wunderground v.1.15,2013-05-07 00:37:00,
2013-05-06 20:42:00,57.3,55.6,30.05,NNW,336,0.0,0.0,94,0.00,,,0.06,Wunderground v.1.15,2013-05-07 00:42:00,
2013-05-06 20:48:00,57.3,55.6,30.05,NNW,336,0.0,0.0,94,0.00,,,0.06,Wunderground v.1.15,2013-05-07 00:48:00,
2013-05-06 20:54:00,57.3,55.6,30.05,NNW,336,0.0,2.0,94,0.00,,,0.06,Wunderground v.1.15,2013-05-07 00:54:00,
2013-05-06 21:00:00,57.4,55.7,30.05,NNW,336,0.0,2.0,94,0.00,,,0.06,Wunderground v.1.15,2013-05-07 01:00:00,
2013-05-06 21:05:00,57.4,56.0,30.05,NNW,336,0.0,0.0,95,0.00,,,0.06,Wunderground v.1.15,2013-05-07 01:05:00,
2013-05-06 21:11:00,57.4,56.0,30.05,NNW,336,0.0,0.0,95,0.00,,,0.06,Wunderground v.1.15,2013-05-07 01:11:00,
2013-05-06 21:17:00,57.4,56.0,30.06,NNW,336,0.0,0.0,95,0.00,,,0.06,Wunderground v.1.15,2013-05-07 01:17:00,
2013-05-06 21:22:00,57.4,56.0,30.06,NNW,336,0.0,0.0,95,0.00,,,0.06,Wunderground v.1.15,2013-05-07 01:22:00,
2013-05-06 21:29:00,57.4,56.0,30.06,NNW,336,0.0,0.0,95,0.00,,,0.06,Wunderground v.1.15,2013-05-07 01:29:00,
2013-05-06 21:35:00,57.4,56.0,30.06,NNW,336,0.0,0.0,95,0.00,,,0.06,Wunderground v.1.15,2013-05-07 01:35:00,
2013-05-06 21:41:00,57.4,56.0,30.06,NNW,336,0.0,0.0,95,0.00,,,0.06,Wunderground v.1.15,2013-05-07 01:41:00,
2013-05-06 21:46:00,57.5,56.1,30.06,NNW,336,0.0,0.0,95,0.00,,,0.06,Wunderground v.1.15,2013-05-07 01:46:00,
2013-05-06 21:52:00,57.5,56.1,30.06,NNW,336,0.0,0.0,95,0.00,,,0.06,Wunderground v.1.15,2013-05-07 01:52:00,
2013-05-06 21:58:00,57.5,56.1,30.06,NNW,336,0.0,0.0,95,0.00,,,0.06,Wunderground v.1.15,2013-05-07 01:58:00,
2013-05-06 22:03:00,57.5,56.1,30.06,NNW,336,0.0,1.0,95,0.00,,,0.06,Wunderground v.1.15,2013-05-07 02:03:00,
2013-05-06 22:09:00,57.5,56.1,30.06,ESE,103,0.0,2.0,95,0.00,,,0.06,Wunderground v.1.15,2013-05-07 02:09:00,
2013-05-06 22:15:00,57.5,56.1,30.06,ESE,103,0.0,1.0,95,0.00,,,0.06,Wunderground v.1.15,2013-05-07 02:15:00,
2013-05-06 22:20:00,57.5,56.1,30.06,ESE,103,0.0,1.0,95,0.00,,,0.06,Wunderground v.1.15,2013-05-07 02:20:00,
2013-05-06 22:26:00,57.5,56.1,30.06,ENE,60,0.0,1.0,95,0.00,,,0.06,Wunderground v.1.15,2013-05-07 02:26:00,
2013-05-06 22:31:00,57.5,56.1,30.06,NE,44,0.0,0.0,95,0.00,,,0.06,Wunderground v.1.15,2013-05-07 02:31:00,
2013-05-06 22:37:00,57.5,56.1,30.06,NE,50,0.0,2.0,95,0.00,,,0.06,Wunderground v.1.15,2013-05-07 02:37:00,
2013-05-06 22:42:00,57.5,56.1,30.06,ESE,120,1.0,1.0,95,0.00,,,0.06,Wunderground v.1.15,2013-05-07 02:42:00,
2013-05-06 22:47:00,57.4,56.0,30.05,ESE,120,0.0,1.0,95,0.00,,,0.06,Wunderground v.1.15,2013-05-07 02:47:00,
2013-05-06 22:52:00,57.4,56.0,30.05,ESE,121,0.0,0.0,95,0.00,,,0.06,Wunderground v.1.15,2013-05-07 02:52:00,
2013-05-06 22:57:00,57.4,56.0,30.05,ESE,121,0.0,1.0,95,0.00,,,0.06,Wunderground v.1.15,2013-05-07 02:57:00,
2013-05-06 23:03:00,57.4,56.0,30.05,ESE,122,0.0,0.0,95,0.00,,,0.06,Wunderground v.1.15,2013-05-07 03:03:00,
2013-05-06 23:08:00,57.3,55.9,30.05,SE,130,0.0,1.0,95,0.00,,,0.06,Wunderground v.1.15,2013-05-07 03:08:00,
2013-05-06 23:14:00,57.3,55.9,30.05,SE,134,0.0,0.0,95,0.00,,,0.06,Wunderground v.1.15,2013-05-07 03:14:00,
2013-05-06 23:20:00,57.3,55.9,30.05,South,179,1.0,1.0,95,0.00,,,0.06,Wunderground v.1.15,2013-05-07 03:20:00,
2013-05-06 23:26:00,57.4,56.0,30.04,South,175,1.0,1.0,95,0.00,,,0.06,Wunderground v.1.15,2013-05-07 03:26:00,
2013-05-06 23:31:00,57.4,56.0,30.04,South,175,0.0,0.0,95,0.00,,,0.06,Wunderground v.1.15,2013-05-07 03:31:00,
2013-05-06 23:37:00,57.3,55.9,30.04,SSE,159,0.0,2.0,95,0.00,,,0.06,Wunderground v.1.15,2013-05-07 03:37:00,
2013-05-06 23:43:00,57.3,55.9,30.04,SSE,159,0.0,0.0,95,0.00,,,0.06,Wunderground v.1.15,2013-05-07 03:43:00,
2013-05-06 23:50:00,57.3,55.9,30.03,SSE,159,0.0,0.0,95,0.00,,,0.06,Wunderground v.1.15,2013-05-07 03:50:00,
2013-05-06 23:55:00,57.3,55.9,30.03,SSE,159,0.0,1.0,95,0.00,,,0.06,Wunderground v.1.15,2013-05-07 03:55:00,